Overview Statistics Trail Chart Weather Telemetry Raw packets
 

This is the latest recevied weather packets stored in our database for station/object W1HVD. If no packets are shown the sender has not sent any weather packets the latest 10 day(s).

<< 61 62 63 64 65 66 67 >>
Time Temp. Humidity Pressure Rain* Wind** Luminosity Snow
1777251482 7.22° C 68% 1021.3 hPa 0 mm - 0 W/m² -
1777251179 7.22° C 67% 1021.2 hPa 0 mm - 0 W/m² -
1777250875 7.78° C 66% 1021.3 hPa 0 mm - 0 W/m² -
1777250573 7.78° C 67% 1021.3 hPa 0 mm - 0 W/m² -
1777250272 7.78° C 65% 1021.3 hPa 0 mm - 0 W/m² -
1777249969 7.78° C 65% 1021.3 hPa 0 mm - 0 W/m² -
1777249665 8.33° C 63% 1021 hPa 0 mm - 0 W/m² -
1777249361 8.89° C 61% 1021.2 hPa 0 mm - 0 W/m² -
1777249058 8.89° C 60% 1021.1 hPa 0 mm - 0 W/m² -
1777248754 8.89° C 59% 1021.3 hPa 0 mm - 0 W/m² -
1777248451 9.44° C 58% 1021 hPa 0 mm - 0 W/m² -
1777248148 9.44° C 57% 1021 hPa 0 mm - 0 W/m² -
1777247847 9.44° C 58% 1021.1 hPa 0 mm - 0 W/m² -
1777247543 10° C 57% 1020.9 hPa 0 mm - 0 W/m² -
1777247241 10° C 57% 1020.9 hPa 0 mm - 1 W/m² -
1777246940 10.56° C 55% 1020.7 hPa 0 mm - 2 W/m² -
1777246635 11.11° C 53% 1020.6 hPa 0 mm - 3 W/m² -
1777246331 11.11° C 53% 1020.6 hPa 0 mm - 5 W/m² -
1777246029 11.67° C 53% 1020.8 hPa 0 mm - 7 W/m² -
1777245727 11.67° C 50% 1020.6 hPa 0 mm - 10 W/m² -
1777245424 12.22° C 48% 1020.6 hPa 0 mm - 13 W/m² -
1777245124 12.22° C 47% 1020.6 hPa 0 mm - 16 W/m² -
1777244821 12.78° C 46% 1020.6 hPa 0 mm - 18 W/m² -
1777244516 12.78° C 45% 1020.4 hPa 0 mm - 21 W/m² -
1777244212 13.33° C 45% 1020.2 hPa 0 mm - 23 W/m² -

* Rain latest hour (hover to see other rain measurements)
** Current wind speed in m/s (hover to see current wind gust speed)